Regional Weather Roundup
Issued by NWS

Home | Current Version | Previous Version | Text Only | Print | Product List | Glossary On
Versions: 1 2 3 4 5 6 7 8 9 10 11 12 13 14 15 16 17 18 19 20 21 22 23 24 25 26 27 28 29 30 31 32 33 34 35 36 37 38 39 40 41 42 43 44 45 46 47 48 49 50
000
ASUS43 KMKX 100811
RWRWI

WISCONSIN REGIONAL WEATHER ROUNDUP
NATIONAL WEATHER SERVICE MILWAUKEE/SULLIVAN WI
300 AM CDT THU JUL 10 2014

NOTE: "FAIR" INDICATES FEW OR NO CLOUDS BELOW 12,000 FEET WITH NO
SIGNIFICANT WEATHER AND/OR OBSTRUCTIONS TO VISIBILITY.

WIZ001-002-006>008-014>016-023>028-100900-
NORTHWEST WISCONSIN

CITY           SKY/WX    TMP DP  RH WIND       PRES   REMARKS
SUPERIOR ARPT  CLEAR     47  46  99 CALM      30.04S
ASHLAND        CLEAR     46  45  96 CALM      30.07R
HAYWARD        CLEAR     54  52  93 CALM      30.07S
SIREN          CLEAR     58  54  88 S3        30.05S
RICE LAKE      CLEAR     53  51  95 CALM      30.08S
LADYSMITH      CLEAR     54  50  87 E5        30.10S
EAU CLAIRE     PTCLDY    56  54  93 CALM      30.06R
MENOMONIE      MOSUNNY   59  56  91 E3        30.06R
NEW RICHMOND   CLEAR     58  55  92 SE3       30.05S
OSCEOLA        PTCLDY    59  58  96 E3        30.06S
$$

WIZ003>005-009-010-017-018-100900-
NORTH CENTRAL WISCONSIN

CITY           SKY/WX    TMP DP  RH WIND       PRES   REMARKS
WOODRUFF       FAIR      44  37  74 CALM      30.10S
RHINELANDER    PTCLDY    42  42 100 CALM      30.11R FOG
EAGLE RIVER    PTCLDY    41  41 100 CALM      30.10R FOG
LAND O LAKES   CLEAR     40  40 100 CALM      30.11R
PHILLIPS       CLEAR     47  47  97 CALM      30.09S
TOMAHAWK       CLEAR     41  40  97 CALM      30.11S
MEDFORD        CLEAR     49  48  99 CALM      30.10R
MERRILL        CLEAR     44  44 100 CALM      30.11R
$$

WIZ029-030-035-036-043>047-100900-
CENTRAL WISCONSIN

CITY           SKY/WX    TMP DP  RH WIND       PRES   REMARKS
WAUSAU         CLEAR     51  49  92 CALM      30.09R
MOSINEE        CLEAR     50  50 100 CALM      30.11R
MARSHFIELD     CLEAR     53  51  93 CALM      30.09R
STEVENS POINT  CLEAR     47  46  96 CALM      30.11R
WAUPACA        CLEAR     52  51  94 CALM      30.11R
WAUTOMA        CLEAR     51  50  97 CALM      30.11R
WISC RAPIDS    CLEAR     52  50  93 CALM      30.11R
CAMP DOUGLAS   FOG       50  50 100 E5        30.09S VSB 3/4
$$

WIZ011>013-019>022-031-037>040-048>050-100900-
NORTHEAST WISCONSIN

CITY           SKY/WX    TMP DP  RH WIND       PRES   REMARKS
ANTIGO         CLEAR     44  44  98 CALM      30.11R
STURGEON BAY   CLEAR     52  48  87 S5        30.10S
GREEN BAY      CLEAR     53  52  96 CALM      30.10R
MANITOWOC      CLEAR     52  51  97 CALM      30.11R
APPLETON       CLEAR     55  48  76 CALM      30.11R
CLINTONVILLE   CLEAR     52  50  93 CALM      30.10R
OSHKOSH        CLEAR     54  51  90 CALM      30.10R
$$

WIZ032>034-041-042-053>061-100900-
SOUTHWEST WISCONSIN

CITY           SKY/WX    TMP DP  RH WIND       PRES   REMARKS
LA CROSSE      CLEAR     60  56  86 SE6       30.07R
SPARTA         CLEAR     49  48  95 CALM      30.09R
VIROQUA        FAIR      58  54  85 SE7       30.09R
BOSCOBEL       PTCLDY    54  52  93 CALM      30.09S FOG
PRAIRIE DU CHI PTCLDY    60  57  89 E3        30.06F
PLATTEVILLE    FAIR      61  55  81 SE6       30.10S
$$

WIZ056-057-062-063-064-067-068-100900-
SOUTH CENTRAL WISCONSIN

CITY           SKY/WX    TMP DP  RH WIND       PRES   REMARKS
BARABOO/DELLS  CLEAR     55  52  91 CALM      30.10R
LONE ROCK      CLEAR     56  52  86 CALM      30.10R
WATERTOWN      CLEAR     54  53  96 CALM      30.10S
MADISON        CLEAR     56  53  90 CALM      30.10R
MIDDLETON      FAIR      53  53 100 CALM      30.11R
MONROE         CLEAR     61  52  72 S5        30.10S
JANESVILLE     CLEAR     55  54  94 CALM      30.10S
$$

WIZ051-052-058>065-066-070>072-100900-
SOUTHEAST WISCONSIN

CITY           SKY/WX    TMP DP  RH WIND       PRES   REMARKS
MILWAUKEE      PTCLDY    58  54  86 E3        30.11R
WAUKESHA       CLEAR     52  48  87 CALM      30.12S
MILWAUKEE/TIMM PTCLDY    57  52  82 CALM      30.11S
RACINE         PTCLDY    56  53  90 CALM      30.12R
BURLINGTON     CLEAR     51  51 100 CALM      30.11R
KENOSHA        CLEAR     55  55 100 CALM      30.11R
FOND DU LAC    CLEAR     53  51  93 CALM      30.11R
SHEBOYGAN      FOG       54  53  97 SW3       30.11R VSB 1/4
WEST BEND      CLEAR     52  50  93 CALM      30.11R
JUNEAU         CLEAR     55  40  57 CALM      30.12R
$$

LSZ147-162-100900-
LAKE SUPERIOR

STATION/POSITION TIME  TEMP    WIND        PRES    WAVE
                       AIR SEA DIR/SP/G            HT/PER
                 (UTC) (F)     (DEG/KT/KT) (MB)    (FT/S)
W MID LAKE BUOY  0750   44 38  250/  6/  6 1018.0R   0
DEVILS ISLAND    0800   60     210/  6/  7 1017.6R
PORT WING        0700   58      CALM  /  3 1017.3S
SAXON HARBOR     0700          200/  7/  8 1017.6R
$$

LMZ867-665-643>646-100900-
LAKE MICHIGAN

STATION/POSITION TIME  TEMP    WIND        PRES    WAVE
                       AIR SEA DIR/SP/G            HT/PER
                 (UTC) (F)     (DEG/KT/KT) (MB)    (FT/S)
N MID LAKE BUOY  0750   55 53  190/  6/  6 1018.8R   0
NORTHPORT PIER   0700   57     200/  5/  6 1018.6R
SISTER BAY       0625   57        CALM       N/A
KEWAUNEE LAKESHO 0700   55     300/  3/  4 1019.5R
SHEBOYGAN LAKESH 0800   59     210/  4/  5 1019.8R
PORT WASHINGTON  0700   55        CALM     1019.6R
ATWATER BUOY     0800   54     320/  2     1020.4R
MILWAUKEE LAKESH 0700   58      10/  2/  3   N/A
S MID LAKE BUOY  0750   58 55  230/  2/  4 1019.7R   0
KENOSHA   LAKESH 0800   59     240/  1/  3   N/A
$$

TC  - TEMPERATURE IN CELSIUS
VSB - VISIBILITY IN STATUTE MILES
WCI - WIND CHILL INDEX
HX  - HEAT INDEX




USA.gov is the U.S. government's official web portal to all federal, state and local government web resources and services.